Location: Lugano
(46.0000°N, 8.9670°E)
Time: 02:39:25
(UTC+02:00)

ZACube-1 - Visible Passes

Search period start: 20 May 2026 00:00
Search period end: 30 May 2026 00:00
Orbit: 536 x 592 km, 97.8° (Epoch: 19 May)

Date Brightness Start Highest point End Pass type
(mag) Time Alt. Az. Time Alt. Az. Time Alt. Az.
20 May ? 04:22:20 10° NNE 04:26:20 44° E 04:30:20 10° S visible
21 May ? 04:22:19 10° NNE 04:26:19 44° E 04:30:19 10° S visible
22 May ? 04:22:18 10° NNE 04:26:18 44° E 04:30:18 10° S visible
23 May ? 04:22:16 10° NNE 04:26:17 44° E 04:30:17 10° S visible
24 May ? 04:22:14 10° NNE 04:26:15 44° E 04:30:15 10° S visible
25 May ? 04:22:12 10° NNE 04:26:13 43° E 04:30:13 10° S visible
26 May ? 04:22:10 10° NNE 04:26:10 43° E 04:30:10 10° S visible
27 May ? 04:22:07 10° NNE 04:26:08 43° E 04:30:07 10° S visible
28 May ? 04:22:04 10° NNE 04:26:05 43° E 04:30:04 10° S visible
29 May ? 04:22:00 10° NNE 04:26:01 43° E 04:30:00 10° S visible
